Temp
75 73 73 71 74 73 74 76 76 75 78 79 80 79 79 79 80 77 76 82 81 81 82 83 82 82 81 81 81 81 81 81 81 80 80 80 80 80 80 79 79 79 79
76 72 72 72 73 75 76 76 74 74 77 78 80 80 80 80 81 78 77 78 81 81 81 82 82 82 82 82 81 81 81 81 80 80 79 79 79 78 79 80 80 79 79
76 76 75 76 76 75 75 74 78 79 77 77 78 78 78 79 79 79 77 76 78 81 81 81 81 80 80 81 80 79 79 78 78 78 78 77 77 77 77 77 79 79 79
79 78 77 77 78 79 77 77 76 74 72 75 75 75 74 76 77 79 77 76 76 78 80 81 80 80 81 81 80 79 78 77 77 77 77 77 77 76 76 76 76 77 78
81 78 78 76 80 76 76 79 76 75 74 75 77 75 74 74 75 80 77 76 75 72 74 79 80 80 81 81 80 79 78 77 77 77 77 77 77 76 76 75 75 75 76
81 77 77 78 78 76 76 76 76 75 74 73 77 77 72 73 75 74 76 78 72 72 72 73 74 74 80 81 80 80 79 78 77 77 77 76 76 76 76 75 74 74 75
81 78 76 77 78 76 76 76 75 74 74 73 69 71 70 73 74 74 74 70 71 72 71 70 68 69 71 79 78 78 79 79 78 77 76 76 76 76 75 75 74 74 74
79 79 77 77 77 76 75 76 74 72 72 72 69 65 64 69 72 75 71 71 70 70 71 71 70 71 69 68 73 78 79 79 78 77 77 76 75 74 74 74 74 74 74
79 79 78 77 76 74 75 74 74 73 71 71 70 66 62 61 64 70 72 70 70 68 68 69 70 70 68 67 73 75 78 77 77 77 77 77 75 74 74 74 74 74 74
79 79 79 78 77 75 74 75 76 74 73 70 69 70 68 67 64 63 69 68 69 70 69 69 69 69 68 68 74 75 76 74 76 77 77 77 76 75 74 74 74 74 74
78 80 79 78 76 76 76 75 74 73 73 70 69 67 66 66 66 64 62 65 67 68 70 68 67 65 67 67 67 72 75 74 75 75 76 76 76 75 75 75 74 74 74
77 79 81 78 77 76 76 76 74 74 73 72 70 68 67 66 66 65 63 64 64 66 67 67 64 64 64 65 74 75 76 75 74 74 73 74 74 74 74 74 75 75 75
75 77 77 76 77 77 77 76 74 73 73 71 71 70 69 68 68 66 65 63 63 64 64 65 64 65 69 64 65 74 76 75 73 72 71 70 69 69 69 70 71 72 73
76 77 77 78 78 77 78 76 73 73 73 72 72 71 70 69 68 67 66 63 61 61 61 63 63 60 62 63 70 72 65 70 70 68 67 67 66 66 67 67 67 68 68
79 77 78 77 76 76 77 75 74 74 70 69 70 71 70 70 70 68 67 65 62 58 57 61 59 58 60 60 66 60 61 69 70 68 66 65 65 65 65 65 66 65 65
76 76 77 77 77 76 77 76 73 70 70 67 68 69 69 70 69 67 68 65 64 60 57 59 56 56 57 62 65 59 60 67 67 67 65 64 63 63 63 62 62 63 63
75 75 76 76 76 76 76 75 69 70 70 68 66 67 67 70 67 67 66 62 60 60 56 55 55 55 56 54 57 57 60 60 60 65 63 62 62 60 59 59 59 60 61
75 75 75 76 76 75 76 72 68 68 70 69 65 67 68 70 66 64 60 58 58 56 55 51 52 53 54 54 54 54 59 64 60 63 63 61 60 58 58 57 57 58 58
75 75 76 76 76 77 76 71 68 68 67 66 67 68 70 66 62 59 58 56 54 57 53 51 50 51 52 53 52 55 56 55 60 63 61 60 58 59 58 57 57 56 56
76 76 76 76 77 77 75 71 68 68 68 69 67 67 67 64 61 58 56 53 53 52 50 49 49 49 49 53 52 52 54 56 52 58 59 58 57 58 57 56 57 57 55
77 77 77 77 77 77 74 70 69 69 69 63 64 64 66 67 66 62 58 52 52 50 49 48 48 47 48 49 52 50 48 51 52 55 55 54 51 51 53 53 56 56 55
77 77 77 78 78 79 67 67 69 69 65 65 63 66 66 65 64 65 64 62 57 52 49 48 47 47 48 48 49 48 47 46 48 55 52 50 52 50 52 51 56 54 54
77 77 77 78 75 71 64 65 68 69 65 66 67 62 65 65 61 59 63 63 63 63 60 51 49 49 49 50 49 47 46 45 46 48 53 49 52 49 52 51 54 54 53
77 77 77 75 72 68 63 64 67 70 70 68 63 59 58 56 57 58 56 55 55 55 55 57 53 52 52 52 50 48 47 47 48 50 54 45 51 48 51 52 53 53 52
76 76 74 72 70 66 61 63 68 68 65 63 60 58 57 56 59 59 55 54 53 54 60 59 58 60 60 59 57 55 51 50 44 47 56 48 49 48 50 50 49 52 51
74 74 70 71 66 65 59 60 66 67 62 57 54 54 60 56 56 56 54 53 52 51 51 53 53 55 56 55 57 49 45 48 44 46 53 50 48 47 45 49 48 48 47
MSLP
1016.92 1016.95 1016.99 1017.05 1016.86 1016.48 1016.49 1016.41 1016.55 1016.72 1016.12 1015.77 1015.68 1015.53 1015.38 1015.22 1015.04 1015.16 1015.17 1015.26 1015.50 1015.60 1015.64 1015.66 1015.54 1015.41 1015.33 1015.42 1015.57 1015.65 1015.73 1015.76 1015.79 1015.89 1015.85 1015.72 1015.74 1015.79 1015.85 1015.94 1015.94 1016.05 1016.10
1016.65 1017.18 1017.24 1017.06 1016.93 1016.69 1016.47 1016.62 1016.92 1016.76 1016.25 1015.90 1015.59 1015.40 1015.30 1015.09 1015.02 1015.14 1015.25 1015.14 1015.15 1015.16 1015.14 1015.06 1015.07 1015.06 1015.14 1015.23 1015.42 1015.42 1015.51 1015.53 1015.71 1015.69 1015.62 1015.64 1015.57 1015.60 1015.56 1015.54 1015.56 1015.65 1015.74
1016.50 1016.86 1017.02 1016.76 1016.52 1016.53 1016.61 1016.73 1016.37 1015.96 1016.12 1016.04 1015.86 1015.65 1015.52 1015.23 1014.99 1015.02 1015.02 1015.06 1015.04 1014.98 1014.93 1014.99 1015.08 1015.12 1014.94 1015.11 1015.16 1015.27 1015.44 1015.60 1015.66 1015.66 1015.73 1015.76 1015.72 1015.62 1015.46 1015.41 1015.35 1015.36 1015.32
1015.94 1016.41 1016.62 1016.64 1016.15 1016.26 1016.36 1016.39 1016.39 1016.38 1016.53 1016.41 1016.12 1015.87 1015.74 1015.27 1015.18 1014.81 1014.89 1014.86 1014.87 1014.90 1014.90 1015.06 1015.02 1015.03 1015.10 1015.21 1015.13 1015.14 1015.26 1015.37 1015.55 1015.63 1015.73 1015.75 1015.67 1015.64 1015.54 1015.37 1015.18 1015.10 1015.04
1015.80 1016.06 1016.30 1016.40 1016.22 1016.61 1016.36 1016.29 1016.47 1016.61 1016.66 1016.33 1016.20 1015.74 1015.69 1015.41 1015.31 1014.97 1014.95 1015.04 1015.01 1015.26 1015.17 1015.02 1015.02 1015.06 1015.08 1014.97 1015.02 1015.00 1015.07 1015.18 1015.25 1015.37 1015.53 1015.50 1015.56 1015.52 1015.38 1015.24 1015.13 1015.01 1014.86
1015.64 1016.02 1016.28 1016.18 1016.12 1016.44 1016.59 1016.46 1016.52 1016.55 1016.56 1016.46 1016.06 1015.91 1015.66 1015.34 1015.34 1015.32 1015.13 1014.73 1014.98 1015.06 1015.25 1015.24 1015.14 1015.32 1014.87 1014.77 1014.85 1014.91 1014.94 1015.00 1015.13 1015.27 1015.22 1015.30 1015.30 1015.22 1015.06 1014.96 1014.96 1014.94 1014.78
1015.59 1015.80 1016.10 1016.11 1015.96 1016.26 1016.35 1016.22 1016.31 1016.33 1016.53 1016.57 1016.60 1016.16 1015.72 1015.29 1015.14 1015.18 1015.08 1015.27 1015.51 1015.34 1015.20 1014.96 1015.06 1015.10 1014.94 1014.73 1014.77 1014.77 1014.94 1015.06 1015.14 1015.27 1015.38 1015.24 1015.10 1015.00 1014.95 1014.79 1014.68 1014.73 1014.76
1015.48 1015.58 1015.74 1016.01 1015.95 1016.11 1016.19 1016.17 1016.34 1016.57 1016.57 1016.37 1016.51 1017.00 1016.72 1016.03 1015.52 1014.97 1015.21 1015.38 1015.65 1015.29 1014.98 1014.77 1014.58 1014.67 1014.89 1014.92 1014.54 1014.44 1014.54 1014.66 1014.80 1014.88 1014.99 1014.95 1014.94 1014.92 1014.85 1014.69 1014.50 1014.44 1014.59
1015.39 1015.20 1015.28 1015.46 1015.63 1015.90 1016.04 1016.13 1016.20 1016.47 1016.38 1016.52 1016.51 1017.16 1017.44 1017.20 1016.58 1015.34 1014.88 1015.22 1015.31 1015.17 1015.02 1014.64 1014.42 1014.59 1014.43 1014.76 1014.65 1014.57 1014.52 1014.59 1014.66 1014.69 1014.66 1014.68 1014.78 1014.79 1014.60 1014.42 1014.21 1014.18 1014.24
1015.09 1014.93 1014.90 1014.89 1015.16 1015.33 1015.49 1015.67 1016.00 1016.14 1016.58 1016.85 1016.91 1016.90 1017.01 1016.96 1017.00 1016.73 1015.64 1015.49 1015.15 1014.72 1014.56 1014.12 1014.28 1014.29 1014.18 1014.43 1014.48 1014.45 1014.35 1014.40 1014.57 1014.63 1014.49 1014.42 1014.44 1014.44 1014.27 1014.10 1013.99 1013.92 1013.87
1014.84 1014.68 1014.42 1014.44 1014.78 1014.99 1015.24 1015.42 1015.89 1016.03 1016.14 1016.49 1016.86 1016.77 1017.00 1017.01 1016.93 1016.95 1016.48 1016.02 1015.26 1014.75 1014.37 1014.16 1014.40 1014.60 1014.17 1014.29 1014.27 1014.14 1014.30 1014.26 1014.23 1014.16 1014.12 1013.96 1013.91 1013.84 1013.72 1013.61 1013.50 1013.43 1013.37
1014.79 1014.39 1014.20 1014.22 1014.19 1014.68 1014.91 1015.04 1015.52 1015.86 1016.24 1016.18 1016.27 1016.68 1016.95 1016.93 1016.72 1016.80 1016.60 1016.20 1015.79 1015.38 1015.01 1014.71 1014.59 1014.64 1014.55 1014.48 1014.26 1014.14 1014.14 1014.14 1013.96 1013.81 1013.73 1013.65 1013.66 1013.56 1013.38 1013.15 1012.95 1012.79 1012.74
1014.50 1014.23 1014.18 1014.32 1014.19 1014.20 1014.53 1014.66 1015.48 1015.93 1015.98 1016.28 1015.99 1016.33 1016.22 1016.50 1016.49 1016.36 1016.20 1016.10 1016.10 1015.72 1015.79 1015.64 1015.34 1015.01 1014.80 1015.00 1014.82 1014.41 1014.19 1014.04 1013.84 1013.69 1013.54 1013.70 1013.71 1013.58 1013.42 1013.22 1013.00 1012.72 1012.30
1013.98 1013.97 1014.28 1014.10 1013.83 1013.99 1014.20 1014.74 1015.62 1015.84 1016.16 1016.11 1016.41 1016.38 1016.22 1016.26 1016.04 1015.98 1015.97 1015.98 1016.32 1016.14 1016.31 1016.31 1016.03 1015.91 1015.58 1015.27 1014.89 1014.78 1014.80 1014.38 1013.95 1013.64 1013.70 1013.88 1013.78 1013.56 1013.29 1013.00 1012.72 1012.40 1012.25
1013.63 1013.86 1014.10 1013.86 1013.72 1013.96 1014.24 1014.60 1015.66 1015.88 1016.19 1016.02 1016.36 1016.49 1016.37 1016.04 1015.76 1015.74 1015.73 1015.68 1016.12 1016.57 1016.97 1016.79 1016.75 1016.59 1016.07 1015.69 1015.31 1015.22 1014.92 1014.36 1014.01 1013.79 1013.81 1013.77 1013.48 1013.14 1012.82 1012.48 1012.19 1011.91 1011.82
1013.26 1013.51 1013.61 1013.51 1013.44 1013.63 1013.94 1014.60 1015.16 1015.23 1014.85 1015.05 1015.88 1016.50 1016.70 1015.99 1015.62 1015.79 1015.65 1015.79 1016.09 1016.41 1017.25 1017.36 1017.38 1017.06 1016.60 1015.92 1015.50 1015.35 1015.08 1014.48 1014.06 1013.89 1014.00 1013.80 1013.45 1013.02 1012.73 1012.43 1012.13 1011.79 1011.38
1012.96 1013.15 1013.23 1013.24 1013.25 1013.38 1013.74 1014.16 1014.94 1014.84 1014.08 1014.63 1015.40 1016.34 1016.52 1015.85 1015.90 1016.08 1016.04 1016.14 1016.39 1016.64 1017.50 1018.06 1017.88 1017.28 1016.83 1016.55 1016.03 1015.56 1014.93 1014.56 1014.30 1014.14 1014.06 1013.66 1013.29 1013.04 1012.90 1012.50 1012.08 1011.73 1011.30
1012.48 1012.64 1012.92 1013.02 1013.05 1013.14 1013.30 1013.90 1014.30 1014.52 1014.34 1014.29 1015.61 1016.07 1016.40 1016.04 1016.27 1016.52 1016.70 1016.92 1017.08 1017.15 1017.53 1018.48 1018.32 1017.90 1017.37 1016.98 1016.63 1016.18 1015.19 1014.53 1014.40 1014.32 1013.90 1013.59 1013.22 1013.16 1012.79 1012.29 1011.89 1011.35 1010.81
1012.14 1012.29 1012.55 1012.78 1012.68 1012.68 1012.66 1013.40 1013.77 1014.27 1014.34 1015.16 1015.60 1015.93 1015.91 1016.27 1016.64 1017.07 1017.28 1017.56 1017.72 1017.64 1018.02 1018.76 1019.06 1018.44 1017.90 1017.18 1016.63 1016.15 1015.54 1014.88 1014.65 1014.49 1013.97 1013.56 1013.28 1012.80 1012.50 1012.06 1011.44 1010.75 1010.09
1011.82 1011.90 1012.01 1012.21 1012.30 1012.22 1012.26 1012.96 1013.65 1014.38 1015.10 1015.32 1015.51 1015.81 1016.02 1016.44 1016.99 1017.44 1017.78 1017.96 1018.03 1018.41 1018.78 1019.01 1019.18 1019.01 1018.51 1017.50 1016.99 1016.61 1015.70 1015.09 1015.05 1014.45 1013.90 1013.62 1013.35 1012.75 1012.40 1011.88 1011.06 1010.14 1009.11
1011.29 1011.38 1011.55 1011.67 1011.73 1011.64 1012.30 1012.86 1013.55 1014.20 1014.86 1015.68 1016.04 1016.03 1016.56 1016.74 1017.24 1017.59 1017.56 1018.17 1018.47 1018.91 1019.16 1019.48 1019.51 1019.12 1018.62 1018.00 1017.36 1017.06 1016.40 1015.59 1014.84 1014.44 1013.88 1013.58 1013.20 1012.75 1012.24 1011.73 1010.79 1009.78 1008.64
1010.68 1010.94 1011.11 1011.11 1011.14 1011.37 1011.99 1012.71 1013.46 1014.27 1015.12 1015.74 1016.20 1016.83 1017.03 1017.35 1017.57 1017.47 1017.74 1018.12 1018.33 1018.89 1019.34 1019.56 1019.62 1019.39 1019.04 1018.59 1017.96 1017.34 1016.70 1016.13 1015.37 1014.40 1014.05 1013.60 1013.23 1012.82 1012.32 1011.82 1010.87 1009.87 1008.59
1010.13 1010.45 1010.58 1010.72 1011.38 1011.95 1012.46 1013.04 1013.68 1014.49 1015.32 1015.92 1016.62 1017.16 1017.49 1017.78 1017.78 1017.96 1018.35 1018.65 1018.80 1018.83 1018.87 1019.21 1019.47 1019.38 1019.13 1018.73 1018.35 1017.74 1017.02 1016.72 1016.11 1015.05 1014.33 1013.90 1013.57 1013.01 1012.50 1012.06 1011.10 1010.08 1009.00
1009.76 1010.04 1010.36 1010.92 1011.68 1012.58 1012.85 1013.42 1014.13 1014.94 1015.75 1016.42 1017.04 1017.35 1017.64 1018.02 1018.16 1018.37 1018.66 1018.99 1019.14 1018.93 1018.97 1019.07 1019.00 1019.06 1018.95 1018.71 1018.46 1018.21 1017.59 1016.80 1015.90 1015.28 1014.82 1014.50 1013.87 1013.32 1012.74 1012.24 1011.57 1010.56 1009.54
1009.55 1009.96 1010.54 1011.23 1011.88 1013.03 1013.21 1013.70 1014.33 1015.22 1016.24 1017.12 1017.63 1017.80 1017.97 1018.29 1018.42 1018.60 1018.98 1019.32 1019.36 1019.13 1018.78 1018.70 1018.86 1018.88 1018.90 1018.74 1018.57 1018.26 1017.90 1017.30 1016.63 1015.83 1015.16 1014.94 1014.37 1013.73 1013.17 1012.80 1012.25 1011.08 1010.01
1009.56 1010.24 1011.02 1011.53 1012.15 1013.16 1013.60 1014.00 1014.56 1015.46 1016.61 1017.53 1018.04 1018.28 1018.38 1018.46 1018.68 1018.86 1019.10 1019.32 1019.43 1019.48 1019.22 1019.14 1019.30 1019.32 1019.27 1019.36 1019.01 1019.17 1019.00 1018.54 1018.01 1016.92 1016.10 1015.43 1014.87 1014.39 1013.92 1013.55 1013.11 1012.20 1011.16
Wind_Speed
1 3 3 4 4 2 3 3 4 3 4 3 1 4 3 3 3 2 2 9 9 10 11 12 11 10 9 8 9 10 9 9 9 10 10 10 10 10 11 11 12 12 13
4 4 4 5 4 4 3 3 3 2 2 4 5 5 4 1 2 5 3 5 13 12 10 11 10 9 8 8 7 6 6 5 3 4 4 6 8 9 9 10 11 11 12
6 5 5 4 5 3 4 4 4 1 3 4 4 4 3 4 3 3 5 4 5 10 10 8 8 6 4 5 5 7 8 8 8 8 7 7 7 8 7 6 10 11 11
6 5 3 3 3 1 4 3 2 1 2 3 3 4 4 3 4 4 4 3 4 4 7 8 7 7 8 8 9 9 9 9 8 7 6 5 5 5 5 6 6 8 11
5 3 2 2 2 1 1 3 1 2 2 3 3 3 4 3 3 2 1 5 5 3 2 8 9 8 10 11 11 11 11 10 9 8 6 4 0 2 3 4 5 6 7
6 3 2 2 3 1 2 1 2 1 1 0 3 4 4 2 2 4 5 2 4 2 3 5 3 3 10 11 11 10 10 9 8 8 7 4 2 4 6 4 4 5 6
6 5 4 3 3 2 2 3 1 1 0 2 2 4 3 2 1 3 4 3 1 3 5 5 4 3 4 11 11 10 10 9 7 4 2 3 5 6 7 7 5 5 6
6 6 5 5 4 1 1 2 2 1 0 1 3 1 3 5 4 3 2 3 3 4 5 5 6 5 5 3 7 13 12 10 7 5 6 6 6 6 7 7 6 5 6
7 7 7 5 5 3 4 3 2 3 3 2 1 4 2 4 3 4 3 3 2 3 4 6 4 4 6 4 6 8 11 8 8 9 9 8 7 8 9 8 7 7 7
8 7 7 7 6 4 5 4 2 3 2 2 1 0 2 2 2 4 3 3 6 4 5 4 2 3 5 2 4 10 8 9 10 11 12 10 10 10 10 9 9 9 9
5 7 7 6 6 4 4 5 3 3 3 3 2 1 1 2 2 3 4 4 4 4 4 4 4 2 5 5 3 4 7 9 11 13 13 13 12 10 10 11 11 11 10
5 8 9 6 6 4 5 5 4 2 3 3 3 2 3 3 2 3 2 3 3 3 5 5 5 4 3 3 5 6 8 10 11 10 11 12 11 13 13 13 13 14 14
4 6 6 5 5 6 5 4 3 2 4 2 4 2 3 3 1 2 2 2 2 2 3 4 4 2 2 4 4 6 6 8 11 12 9 3 1 3 6 9 12 14 16
4 4 4 6 8 5 6 3 2 1 2 3 4 3 1 2 3 2 2 3 1 2 4 2 3 6 5 5 8 13 7 12 7 6 4 2 4 7 10 13 15 16 18
6 6 6 6 6 6 6 4 4 4 3 1 4 4 2 2 1 1 2 2 3 1 1 3 3 6 5 5 8 5 6 12 14 1 3 7 12 15 17 18 17 16 18
5 5 6 5 6 6 6 6 5 6 6 4 4 6 6 3 3 1 1 2 1 3 1 2 4 3 4 5 9 6 7 13 12 5 11 12 11 11 12 12 13 15 15
6 6 7 6 6 5 5 5 9 8 7 5 6 4 8 3 2 3 4 3 3 2 3 3 3 3 7 6 8 7 7 6 3 10 13 11 10 11 13 13 13 15 15
6 7 6 6 5 6 6 9 10 9 9 8 6 2 6 4 5 5 4 5 5 3 4 4 4 4 2 4 5 6 6 5 3 12 18 10 10 11 14 12 15 17 18
6 6 5 6 6 6 7 7 6 7 3 5 6 3 1 6 6 4 4 5 4 5 6 4 2 2 3 3 5 4 5 4 4 13 13 10 14 13 17 16 18 17 16
6 6 7 7 7 8 3 6 7 7 7 4 4 4 6 7 7 6 5 6 5 6 4 3 2 3 2 5 3 5 7 5 2 7 9 8 14 13 16 18 19 21 22
7 7 7 6 7 6 6 7 7 9 8 8 6 7 5 10 11 7 6 5 7 4 3 3 2 2 3 4 7 4 3 4 3 7 6 4 6 6 5 13 18 24 25
8 7 7 8 6 2 16 14 11 10 10 9 8 6 7 10 9 14 13 11 9 6 3 2 1 3 5 3 4 4 4 5 6 5 8 4 7 7 6 8 26 26 27
6 6 7 4 6 7 15 15 16 10 10 10 8 6 6 4 8 7 8 7 5 5 5 5 3 2 3 3 5 6 5 3 4 4 7 4 9 6 6 9 26 27 28
6 6 4 7 8 6 15 16 17 12 10 8 7 6 7 6 6 7 5 4 4 2 3 3 4 2 1 5 3 3 4 7 4 4 10 4 8 5 4 9 25 29 28
4 4 7 9 11 7 13 17 15 12 11 10 6 6 6 6 7 9 7 6 4 4 3 5 5 7 10 12 11 6 9 8 4 3 13 3 7 5 3 8 12 29 27
7 7 8 7 11 12 14 16 14 10 11 7 5 5 8 7 8 8 7 6 5 2 2 4 2 6 7 8 13 7 4 8 4 5 13 7 10 7 4 4 10 13 13
Wind_Direction
187 175 227 259 264 308 280 286 284 298 348 336 319 356 35 53 177 224 190 188 210 230 213 208 208 218 223 230 230 228 232 239 238 243 244 243 237 236 239 246 246 243 242
147 168 224 244 263 251 290 272 272 298 330 322 347 349 338 345 168 173 184 190 202 206 200 202 213 227 234 230 238 239 242 239 248 259 285 275 258 254 249 246 244 244 245
164 175 200 252 247 234 267 259 239 258 349 334 332 347 333 330 324 162 190 189 196 192 199 195 187 172 141 130 120 106 103 98 94 83 70 58 45 32 8 313 272 250 238
179 159 179 279 267 159 222 202 159 350 319 316 316 340 335 351 334 329 183 199 188 198 195 182 177 169 163 149 149 147 135 124 115 105 92 68 41 17 360 350 340 322 268
219 158 174 314 331 250 40 138 141 179 255 298 337 310 312 300 310 346 311 213 208 239 210 188 190 184 177 180 171 166 156 156 152 145 139 124 193 265 284 317 330 329 339
221 157 180 277 342 349 311 239 168 196 238 309 298 313 316 286 331 332 316 172 194 249 185 233 220 238 203 192 184 178 176 172 165 165 165 175 258 271 252 251 290 314 330
218 212 179 204 245 266 257 252 209 187 312 14 20 319 324 316 189 341 334 123 340 297 213 215 222 247 252 212 192 191 199 196 186 189 231 291 305 299 280 260 252 286 309
221 209 204 212 224 232 18 326 212 288 9 163 165 103 345 329 327 319 157 129 208 258 234 238 237 219 241 262 215 207 206 208 208 221 259 284 284 276 274 268 272 261 276
224 209 208 213 222 190 227 228 230 179 232 262 335 125 358 254 329 314 331 22 305 255 252 238 249 261 248 258 247 241 224 210 220 241 264 285 260 261 263 260 254 257 259
219 223 212 217 223 210 220 225 150 216 121 248 357 343 235 194 232 322 336 334 311 289 262 258 158 296 259 189 245 235 223 188 233 259 271 267 264 260 263 267 269 265 261
239 244 225 222 218 218 236 232 184 205 187 163 198 221 326 317 252 224 277 305 295 336 331 16 98 70 69 149 181 174 164 216 239 256 260 260 263 265 265 262 267 269 271
236 235 240 230 239 219 231 236 193 198 185 186 182 161 198 228 252 269 266 288 289 334 6 35 72 99 120 137 183 190 218 238 257 265 264 258 273 282 283 278 271 270 267
230 237 233 237 241 228 220 228 160 203 196 210 207 228 203 226 264 241 198 281 291 350 26 16 17 11 357 358 338 305 301 283 298 298 284 298 308 332 311 303 295 286 278
241 247 249 243 249 242 222 176 104 9 258 345 25 352 337 218 212 215 232 145 316 351 27 302 30 359 9 360 16 22 346 326 355 68 102 70 349 322 306 294 287 281 278
247 239 225 243 247 232 229 144 114 84 61 94 15 6 313 276 280 297 231 159 154 66 337 302 73 1 358 9 7 359 341 336 325 260 38 2 333 315 309 303 294 288 279
249 267 267 251 250 226 216 156 126 165 224 132 98 21 330 286 33 287 148 129 132 128 161 29 16 334 345 356 1 354 322 340 334 86 19 347 327 332 329 338 331 319 310
239 250 259 262 252 247 221 157 133 182 210 244 92 36 294 331 38 43 60 68 59 82 123 45 30 327 8 356 340 332 325 319 14 35 9 339 344 14 349 327 324 314 302
222 233 241 262 249 230 220 144 164 185 210 231 105 327 281 67 74 63 56 63 58 18 113 88 350 343 341 331 303 306 318 338 14 17 345 6 1 17 346 341 328 315 309
224 235 229 231 249 239 232 143 175 177 223 99 139 214 128 118 88 79 68 79 66 64 60 89 346 302 298 311 322 323 332 335 27 358 348 7 357 350 352 347 326 326 312
208 222 228 226 227 233 169 150 143 128 112 129 107 93 105 104 114 104 100 92 82 73 72 78 16 309 295 300 314 336 354 3 343 352 355 351 357 345 0 345 341 346 337
210 215 226 232 233 229 141 134 123 127 120 93 93 79 101 111 121 144 111 95 91 91 86 67 16 313 321 333 11 325 313 318 308 356 345 331 348 335 328 339 354 355 351
208 207 219 223 231 104 133 133 131 127 116 121 111 100 89 102 113 99 99 119 136 127 109 128 298 28 348 302 323 334 329 341 359 359 350 314 2 332 344 343 2 2 1
195 202 222 198 102 109 125 126 128 123 126 129 128 125 115 105 100 99 111 112 120 122 142 154 112 344 333 318 320 333 345 307 282 300 357 329 357 329 346 353 3 6 7
185 204 129 116 112 108 124 121 116 123 123 116 110 117 115 119 136 134 129 95 68 76 133 145 124 145 28 344 359 299 297 297 298 317 11 339 353 327 326 2 2 7 9
166 111 128 125 122 124 126 121 119 109 105 95 97 103 112 112 126 134 123 110 83 28 22 174 165 102 56 36 23 23 14 2 334 330 8 316 347 324 325 0 0 4 8
118 124 103 118 129 124 124 119 119 117 112 112 85 84 98 106 102 110 114 118 80 346 31 84 76 57 58 36 37 42 357 21 341 343 351 14 357 354 354 347 4 4 360